Location: Longueuil
(45.5369°N, 73.5107°W)
Time: 14:56:03
(UTC-04:00)

ISS - Visible Passes

Search period start: 16 May 2021 00:00
Search period end: 26 May 2021 00:00
Orbit: 417 x 422 km, 51.6° (Epoch: 16 May)

Date Brightness Start Highest point End Pass type
(mag) Time Alt. Az. Time Alt. Az. Time Alt. Az.
16 May -1.9 01:30:58 10° NW 01:34:04 32° N 01:37:09 10° ENE visible
16 May -3.9 03:07:45 10° WNW 03:11:09 83° SSW 03:14:31 10° ESE visible
16 May -1.9 04:45:45 10° WSW 04:47:29 13° SW 04:49:12 10° SSW visible
16 May -3.8 21:28:47 10° SW 21:32:06 62° SSE 21:35:26 10° ENE visible
16 May -2.1 23:05:56 10° W 23:09:04 35° NNW 23:12:13 10° NE visible
17 May -1.7 00:43:28 10° WNW 00:46:27 29° N 00:48:57 13° ENE visible
17 May -1.8 02:20:18 10° WNW 02:26:37 13° ESE 02:27:03 10° ESE visible
17 May -2.5 04:00:11 21° SW 04:00:13 21° SW 04:02:50 10° S visible
17 May -2.5 22:18:16 10° W 22:21:30 44° NNW 22:24:46 10° NE visible
17 May -1.6 23:55:54 10° WNW 23:58:51 27° N 00:01:33 11° ENE visible
18 May -1.7 01:32:52 10° NW 01:34:27 24° NW 01:34:27 24° NW visible
18 May -3.1 21:30:39 10° WSW 21:33:59 60° NNW 21:37:20 10° ENE visible
18 May -1.6 23:08:15 10° WNW 23:11:14 28° N 23:14:13 10° ENE visible
19 May -2.2 00:45:26 10° NW 00:48:08 35° N 00:48:08 35° N visible
19 May -1.8 22:20:35 10° WNW 22:23:37 30° N 22:26:40 10° NE visible
19 May -2.0 23:57:57 10° NW 00:01:01 32° N 00:01:58 27° NE visible
20 May -0.9 01:34:43 10° WNW 01:34:54 11° WNW 01:34:54 11° WNW visible
20 May -2.0 21:32:53 10° W 21:36:02 35° NNW 21:39:10 10° NE visible
20 May -1.8 23:10:25 10° WNW 23:13:25 29° N 23:15:53 13° ENE visible
21 May -1.8 00:47:15 10° WNW 00:48:49 25° NW 00:48:49 25° NW visible
21 May -1.7 22:22:50 10° WNW 22:25:47 27° N 22:28:45 10° ENE visible
21 May -2.8 23:59:48 10° NW 00:02:47 46° N 00:02:47 46° N visible
22 May -1.7 21:35:11 10° WNW 21:38:09 28° N 21:41:08 10° ENE visible
22 May -2.4 23:12:21 10° NW 23:15:32 38° NNE 23:16:46 27° ENE visible
23 May -1.1 00:49:09 10° WNW 00:49:42 14° WNW 00:49:42 14° WNW visible
23 May -2.1 22:24:51 10° NW 22:27:56 32° N 22:30:47 11° ENE visible
24 May -2.4 00:01:38 10° WNW 00:03:43 35° WNW 00:03:43 35° WNW visible
24 May -1.9 21:37:19 10° WNW 21:40:19 29° N 21:43:19 10° ENE visible
24 May -3.6 23:14:09 10° WNW 23:17:31 68° NNE 23:17:45 65° ENE visible
25 May -3.0 22:26:41 10° NW 22:29:59 49° NNE 22:31:49 22° E visible
